Location: ????????
(37.6846°N, 24.0673°E)
Time: 12:13:50
(UTC+00:00)

Cosmos 2082 Rocket - Pass Details

Date: 14 July 2020
Orbit: 834 x 853 km, 71.0° (Epoch: 10 August)

Event Time Altitude Azimuth Distance (km) Brightness Sun altitude
Exits shadow 00:40:52 52° 195° (SSW) 1,047 2.3 -23.1°
Maximum altitude 00:42:20 85° 111° (ESE) 860 2.1 -23.0°
Drops below altitude 10° 00:48:03 10° 23° (NNE) 2,486 5.7 -22.3°
Sets 00:50:31 0° 23° (NNE) 3,423 6.8 -22.1°
